,,,PA_Meas_PMT16A,,PR_Meas_QMR101_102,,RH_Meas_QMH101,,SR_Meas_QMS101,,TA_Meas_QMH101,,GenWind,,GenWind,
date,time,status,PA,status,PR,status,RH,status,SR,status,TA,status,DirAvg,status,SpdAvg,
2008-08-26, 06:24:04,VALID,1004.54,VALID,0,VALID,81.9799,VALID,57.7231,VALID,26.7998,VALID,22,VALID,2.95547,
2008-08-26, 06:25:04,VALID,1004.61,VALID,0,VALID,82.102,VALID,57.8237,VALID,26.8798,VALID,49,VALID,1.2043,
2008-08-26, 06:26:04,VALID,1004.58,VALID,0,VALID,81.9418,VALID,59.6338,VALID,26.8603,VALID,104,VALID,0.979297,
2008-08-26, 06:27:04,VALID,1004.56,VALID,0,VALID,81.8197,VALID,58.9299,VALID,26.8993,VALID,67,VALID,1.55469,
2008-08-26, 06:28:04,VALID,1004.56,VALID,0,VALID,81.9876,VALID,59.7344,VALID,26.8583,VALID,78,VALID,0.930078,
2008-08-26, 06:29:04,VALID,1004.56,VALID,0,VALID,81.3925,VALID,61.1423,VALID,26.8973,VALID,77,VALID,2.02539,
2008-08-26, 06:30:04,VALID,1004.53,VALID,0,VALID,81.5222,VALID,63.4552,VALID,26.9383,VALID,21,VALID,2.04492,
2008-08-26, 06:31:04,VALID,1004.56,VALID,0,VALID,81.5146,VALID,65.3659,VALID,26.9188,VALID,80,VALID,1.78437,
2008-08-26, 06:32:04,VALID,1004.55,VALID,0,VALID,81.6367,VALID,69.8913,VALID,26.8993,VALID,78,VALID,1.07734,
2008-08-26, 06:33:04,VALID,1004.57,VALID,0,VALID,81.6138,VALID,67.6789,VALID,26.9383,VALID,79,VALID,1.27969,
2008-08-26, 06:34:04,VALID,1004.59,VALID,0,VALID,81.5756,VALID,66.5727,VALID,26.9578,VALID,100,VALID,1.01758,
2008-08-26, 06:35:04,VALID,1004.56,VALID,0,VALID,81.4383,VALID,67.176,VALID,26.9578,VALID,82,VALID,0.785156,
2008-08-26, 06:36:04,VALID,1004.58,VALID,0,VALID,81.1789,VALID,67.4777,VALID,26.9578,VALID,80,VALID,1.89883,
2008-08-26, 06:37:04,VALID,1004.61,VALID,0,VALID,81.4154,VALID,68.7851,VALID,26.9578,VALID,71,VALID,1.54648,
2008-08-26, 06:38:04,VALID,1004.61,VALID,0,VALID,81.3544,VALID,70.5952,VALID,26.9578,VALID,69,VALID,1.44258,
2008-08-26, 06:39:04,VALID,1004.65,VALID,0,VALID,81.4307,VALID,71.7014,VALID,26.9383,VALID,100,VALID,1.72227,
2008-08-26, 06:40:04,VALID,1004.64,VALID,0,VALID,81.2628,VALID,73.2098,VALID,26.9793,VALID,85,VALID,1.62031,
2008-08-26, 06:41:04,VALID,1004.72,VALID,0,VALID,81.3162,VALID,74.2155,VALID,26.9772,VALID,80,VALID,1.78359,
2008-08-26, 06:42:04,VALID,1004.72,VALID,0,VALID,81.3773,VALID,74.316,VALID,26.9793,VALID,78,VALID,1.25273,
2008-08-26, 06:43:04,VALID,1004.77,VALID,0,VALID,81.3773,VALID,77.4335,VALID,26.9578,VALID,82,VALID,1.57617,
2008-08-26, 06:44:04,VALID,1004.8,VALID,0,VALID,81.1103,VALID,89.4005,VALID,27.0183,VALID,122,VALID,2.0875,
2008-08-26, 06:45:04,VALID,1004.81,VALID,0,VALID,80.8966,VALID,93.9258,VALID,27.0552,VALID,82,VALID,2.39258,
2008-08-26, 06:46:04,VALID,1004.84,VALID,0,VALID,80.8661,VALID,95.3337,VALID,27.1136,VALID,92,VALID,1.89961,
2008-08-26, 06:47:04,VALID,1004.83,VALID,0,VALID,80.5762,VALID,93.9258,VALID,27.1742,VALID,56,VALID,2.27422,
2008-08-26, 06:48:04,VALID,1004.85,VALID,0,VALID,80.4465,VALID,96.2387,VALID,27.2326,VALID,94,VALID,0.819922,
2008-08-26, 06:49:04,VALID,1004.87,VALID,0,VALID,80.1032,VALID,100.563,VALID,27.2716,VALID,83,VALID,2.23086,
2008-08-26, 06:50:04,VALID,1004.88,VALID,0,VALID,80.1185,VALID,102.071,VALID,27.3106,VALID,70,VALID,1.09922,
2008-08-26, 06:51:04,VALID,1004.87,VALID,0,VALID,79.8744,VALID,89.2999,VALID,27.3085,VALID,67,VALID,2.13359,
2008-08-26, 06:52:04,VALID,1004.85,VALID,0,VALID,80.0422,VALID,90.4061,VALID,27.3301,VALID,94,VALID,2.24062,
2008-08-26, 06:53:04,VALID,1004.86,VALID,0,VALID,79.9659,VALID,101.468,VALID,27.328,VALID,59,VALID,1.48594,
2008-08-26, 06:54:04,VALID,1004.85,VALID,0,VALID,79.9354,VALID,108.105,VALID,27.3475,VALID,66,VALID,1.50469,
2008-08-26, 06:55:04,VALID,1004.86,VALID,0,VALID,79.821,VALID,111.223,VALID,27.3454,VALID,90,VALID,2.08711,
2008-08-26, 06:56:04,VALID,1004.81,VALID,0,VALID,79.8362,VALID,113.536,VALID,27.367,VALID,87,VALID,1.68242,
2008-08-26, 06:57:04,VALID,1004.85,VALID,0,VALID,79.9049,VALID,113.435,VALID,27.4059,VALID,70,VALID,0.849219,
2008-08-26, 06:58:04,VALID,1004.81,VALID,0,VALID,80.2024,VALID,111.524,VALID,27.3844,VALID,32,VALID,1.22305,
2008-08-26, 06:59:04,VALID,1004.83,VALID,0,VALID,80.0575,VALID,112.329,VALID,27.4059,VALID,50,VALID,1.0625,
2008-08-26, 07:00:04,VALID,1004.86,VALID,0,VALID,79.7142,VALID,115.547,VALID,27.4059,VALID,90,VALID,2.42188,
2008-08-26, 07:01:04,VALID,1004.9,VALID,0,VALID,79.8362,VALID,122.083,VALID,27.3865,VALID,67,VALID,1.32734,
2008-08-26, 07:02:04,VALID,1004.89,VALID,0,VALID,80.149,VALID,130.832,VALID,27.3844,VALID,76,VALID,0.976563,
2008-08-26, 07:03:04,VALID,1004.91,VALID,0,VALID,80.2863,VALID,133.95,VALID,27.3865,VALID,72,VALID,0.765234,
2008-08-26, 07:04:04,VALID,1004.9,VALID,0,VALID,79.7752,VALID,131.335,VALID,27.4254,VALID,66,VALID,1.98125,
2008-08-26, 07:05:04,VALID,1004.9,VALID,0,VALID,79.2946,VALID,132.643,VALID,27.4449,VALID,94,VALID,2.20859,
2008-08-26, 07:06:04,VALID,1004.92,VALID,0,VALID,79.7828,VALID,139.179,VALID,27.4644,VALID,58,VALID,0.935547,
2008-08-26, 07:07:04,VALID,1004.88,VALID,0,VALID,79.9736,VALID,145.716,VALID,27.5034,VALID,47,VALID,1.01445,
2008-08-26, 07:08:04,VALID,1004.91,VALID,0,VALID,79.6837,VALID,148.431,VALID,27.5229,VALID,69,VALID,1.46484,
2008-08-26, 07:09:04,VALID,1004.92,VALID,0,VALID,79.4166,VALID,155.873,VALID,27.5229,VALID,78,VALID,1.37969,
2008-08-26, 07:10:04,VALID,1004.95,VALID,0,VALID,78.8903,VALID,170.957,VALID,27.5424,VALID,98,VALID,1.78008,
2008-08-26, 07:11:04,VALID,1004.93,VALID,0,VALID,79.5769,VALID,183.93,VALID,27.5813,VALID,102,VALID,1.66172,
2008-08-26, 07:12:04,VALID,1004.94,VALID,0,VALID,79.0352,VALID,180.712,VALID,27.6008,VALID,71,VALID,1.64102,
2008-08-26, 07:13:04,VALID,1004.91,VALID,0,VALID,79.0962,VALID,184.131,VALID,27.6398,VALID,69,VALID,1.36211,
2008-08-26, 07:14:04,VALID,1004.9,VALID,0,VALID,79.0657,VALID,188.757,VALID,27.6572,VALID,103,VALID,1.33008,
2008-08-26, 07:15:04,VALID,1004.92,VALID,0,VALID,79.0352,VALID,190.667,VALID,27.6983,VALID,106,VALID,1.53281,
2008-08-26, 07:16:04,VALID,1004.91,VALID,0,VALID,79.1039,VALID,205.35,VALID,27.7588,VALID,100,VALID,1.00781,
2008-08-26, 07:17:04,VALID,1004.95,VALID,0,VALID,78.608,VALID,204.344,VALID,27.8152,VALID,42,VALID,1.45781,
2008-08-26, 07:18:04,VALID,1004.99,VALID,0,VALID,78.5775,VALID,199.215,VALID,27.8347,VALID,99,VALID,1.08594,
2008-08-26, 07:19:04,VALID,1005.02,VALID,0,VALID,77.6696,VALID,202.232,VALID,27.8737,VALID,72,VALID,1.80508,
2008-08-26, 07:20:04,VALID,1005.04,VALID,0,VALID,77.9977,VALID,206.456,VALID,27.8932,VALID,75,VALID,1.43672,
2008-08-26, 07:21:04,VALID,1005.06,VALID,0,VALID,78.6461,VALID,209.875,VALID,27.9321,VALID,96,VALID,1.26016,
2008-08-26, 07:22:04,VALID,1005.07,VALID,0,VALID,77.0669,VALID,200.623,VALID,27.9516,VALID,100,VALID,2.40156,
2008-08-26, 07:23:04,VALID,1005.04,VALID,0,VALID,77.7688,VALID,201.83,VALID,27.9733,VALID,112,VALID,1.78398,
2008-08-26, 07:24:04,VALID,1005.09,VALID,0,VALID,77.7001,VALID,207.461,VALID,27.9538,VALID,114,VALID,2.29453,
2008-08-26, 07:25:04,VALID,1005.07,VALID,0,VALID,78.0816,VALID,211.383,VALID,27.9927,VALID,50,VALID,0.915625,
2008-08-26, 07:26:04,VALID,1005.1,VALID,0,VALID,77.8298,VALID,221.641,VALID,28.0317,VALID,101,VALID,0.991797,
2008-08-26, 07:27:04,VALID,1005.09,VALID,0,VALID,77.8298,VALID,229.786,VALID,28.0686,VALID,109,VALID,1.53711,
2008-08-26, 07:28:04,VALID,1005.08,VALID,0,VALID,77.6696,VALID,232.502,VALID,28.0859,VALID,49,VALID,0.988281,
2008-08-26, 07:29:04,VALID,1005.08,VALID,0,VALID,77.2195,VALID,195.695,VALID,28.1054,VALID,33,VALID,1.90703,
2008-08-26, 07:30:04,VALID,1005.1,VALID,0,VALID,77.5933,VALID,227.272,VALID,28.166,VALID,110,VALID,1.01992,
2008-08-26, 07:31:04,VALID,1005.08,VALID,0,VALID,77.2882,VALID,245.273,VALID,28.1054,VALID,128,VALID,1.65742,
2008-08-26, 07:32:04,VALID,1005.1,VALID,0,VALID,77.8298,VALID,244.066,VALID,28.1466,VALID,123,VALID,1.0707,
2008-08-26, 07:33:04,VALID,1005.1,VALID,0,VALID,77.5399,VALID,247.586,VALID,28.1271,VALID,93,VALID,1.49531,
2008-08-26, 07:34:04,VALID,1005.09,VALID,0,VALID,77.7764,VALID,249.296,VALID,28.1855,VALID,63,VALID,1.20938,
2008-08-26, 07:35:04,VALID,1005.05,VALID,0,VALID,77.2195,VALID,256.737,VALID,28.2245,VALID,91,VALID,1.6,
2008-08-26, 07:36:04,VALID,1005.01,VALID,0,VALID,77.5171,VALID,254.424,VALID,28.2635,VALID,72,VALID,0.654688,
2008-08-26, 07:37:04,VALID,1005.07,VALID,0,VALID,77.5018,VALID,284.291,VALID,28.3415,VALID,87,VALID,1.27227,
2008-08-26, 07:38:04,VALID,1005.06,VALID,0,VALID,77.3111,VALID,310.538,VALID,28.322,VALID,105,VALID,1.46797,
2008-08-26, 07:39:04,VALID,1005.08,VALID,0,VALID,77.0364,VALID,301.488,VALID,28.4021,VALID,72,VALID,1.41133,
2008-08-26, 07:40:04,VALID,1005.11,VALID,0,VALID,76.8686,VALID,264.279,VALID,28.3415,VALID,76,VALID,2.03945,
2008-08-26, 07:41:04,VALID,1005.09,VALID,0,VALID,77.3645,VALID,262.972,VALID,28.3241,VALID,122,VALID,2.11641,
2008-08-26, 07:42:04,VALID,1005.09,VALID,0,VALID,77.6773,VALID,247.787,VALID,28.3025,VALID,57,VALID,0.851563,
2008-08-26, 07:43:04,VALID,1005.09,VALID,0,VALID,78.1274,VALID,251.608,VALID,28.3415,VALID,43,VALID,0.928125,
2008-08-26, 07:44:04,VALID,1005.13,VALID,0,VALID,77.1432,VALID,255.933,VALID,28.4216,VALID,58,VALID,1.11523,
2008-08-26, 07:45:04,VALID,1005.16,VALID,0,VALID,76.8915,VALID,259.05,VALID,28.4216,VALID,76,VALID,1.58203,
2008-08-26, 07:46:04,VALID,1005.18,VALID,0,VALID,77.4637,VALID,265.486,VALID,28.4,VALID,110,VALID,1.14961,
2008-08-26, 07:47:04,VALID,1005.22,VALID,0,VALID,77.456,VALID,269.81,VALID,28.4584,VALID,116,VALID,1.57187,
2008-08-26, 07:48:04,VALID,1005.23,VALID,0,VALID,76.8076,VALID,271.017,VALID,28.4779,VALID,68,VALID,1.61992,
2008-08-26, 07:49:04,VALID,1005.19,VALID,0,VALID,76.0294,VALID,282.582,VALID,28.4996,VALID,74,VALID,1.48555,
2008-08-26, 07:50:04,VALID,1005.26,VALID,0,VALID,76.7694,VALID,286.705,VALID,28.5581,VALID,110,VALID,1.20195,
2008-08-26, 07:51:04,VALID,1005.23,VALID,0,VALID,75.9455,VALID,290.426,VALID,28.5754,VALID,110,VALID,1.31133,
2008-08-26, 07:52:04,VALID,1005.18,VALID,0,VALID,76.1896,VALID,304.605,VALID,28.5971,VALID,123,VALID,2.01094,
2008-08-26, 07:53:04,VALID,1005.14,VALID,0,VALID,75.8463,VALID,309.935,VALID,28.5754,VALID,125,VALID,2.34766,
2008-08-26, 07:54:04,VALID,1005.19,VALID,0,VALID,75.9608,VALID,307.521,VALID,28.5559,VALID,73,VALID,1.31914,
2008-08-26, 07:55:04,VALID,1005.2,VALID,0,VALID,76.4185,VALID,313.958,VALID,28.5754,VALID,123,VALID,1.34297,
2008-08-26, 07:56:04,VALID,1005.21,VALID,0,VALID,76.8381,VALID,324.416,VALID,28.6729,VALID,67,VALID,0.603516,
2008-08-26, 07:57:04,VALID,1005.28,VALID,0,VALID,76.4719,VALID,329.545,VALID,28.7292,VALID,97,VALID,1.39297,
2008-08-26, 07:58:04,VALID,1005.27,VALID,0,VALID,75.854,VALID,332.662,VALID,28.8288,VALID,87,VALID,1.28164,
2008-08-26, 07:59:04,VALID,1005.24,VALID,0,VALID,75.5869,VALID,334.271,VALID,28.8483,VALID,98,VALID,1.48594,
2008-08-26, 08:00:04,VALID,1005.25,VALID,0,VALID,75.5946,VALID,340.808,VALID,28.8483,VALID,88,VALID,2.24062,
2008-08-26, 08:01:04,VALID,1005.17,VALID,0,VALID,75.2208,VALID,361.323,VALID,28.8678,VALID,54,VALID,1.71055,
2008-08-26, 08:02:04,VALID,1005.25,VALID,0,VALID,75.381,VALID,372.385,VALID,28.9263,VALID,95,VALID,1.53047,
2008-08-26, 08:03:04,VALID,1005.24,VALID,0,VALID,75.2055,VALID,387.167,VALID,28.9263,VALID,86,VALID,2.06602,
2008-08-26, 08:04:04,VALID,1005.25,VALID,0,VALID,74.7554,VALID,401.447,VALID,28.9458,VALID,41,VALID,2.63438,
2008-08-26, 08:05:04,VALID,1005.27,VALID,0,VALID,74.2595,VALID,411.403,VALID,28.9653,VALID,31,VALID,2.9543,
2008-08-26, 08:06:04,VALID,1005.27,VALID,0,VALID,74.8317,VALID,429.303,VALID,29.0238,VALID,121,VALID,0.895312,
2008-08-26, 08:07:04,VALID,1005.32,VALID,0,VALID,73.8247,VALID,457.763,VALID,29.1798,VALID,117,VALID,1.78477,
2008-08-26, 08:08:04,VALID,1005.32,VALID,0,VALID,73.6416,VALID,467.417,VALID,29.1408,VALID,99,VALID,2.77578,
2008-08-26, 08:09:04,VALID,1005.37,VALID,0,VALID,73.9239,VALID,462.288,VALID,29.143,VALID,95,VALID,2.41953,
2008-08-26, 08:10:04,VALID,1005.34,VALID,0,VALID,74.7783,VALID,471.64,VALID,29.1993,VALID,59,VALID,1.18281,
2008-08-26, 08:11:04,VALID,1005.36,VALID,0,VALID,73.6034,VALID,477.272,VALID,29.3575,VALID,19,VALID,1.8457,
2008-08-26, 08:12:04,VALID,1005.43,VALID,0,VALID,73.5195,VALID,472.042,VALID,29.4528,VALID,72,VALID,2.24727,
2008-08-26, 08:13:04,VALID,1005.44,VALID,0,VALID,72.6651,VALID,454.645,VALID,29.4528,VALID,109,VALID,2.41289,
2008-08-26, 08:14:04,VALID,1005.46,VALID,0,VALID,73.8857,VALID,449.516,VALID,29.4333,VALID,101,VALID,2.12969,
2008-08-26, 08:15:04,VALID,1005.42,VALID,0,VALID,71.9632,VALID,448.008,VALID,29.455,VALID,117,VALID,2.60859,
2008-08-26, 08:16:04,VALID,1005.44,VALID,0,VALID,73.8857,VALID,466.713,VALID,29.4138,VALID,32,VALID,1.09297,
2008-08-26, 08:17:04,VALID,1005.41,VALID,0,VALID,73.3212,VALID,472.244,VALID,29.5525,VALID,359,VALID,0.997656,
2008-08-26, 08:18:04,VALID,1005.45,VALID,0,VALID,73.5272,VALID,467.819,VALID,29.728,VALID,14,VALID,0.647266,
2008-08-26, 08:19:04,VALID,1005.48,VALID,0,VALID,73.0465,VALID,475.864,VALID,29.8623,VALID,102,VALID,1.325,
2008-08-26, 08:20:04,VALID,1005.53,VALID,0,VALID,72.6422,VALID,485.518,VALID,29.884,VALID,103,VALID,1.76719,
2008-08-26, 08:21:04,VALID,1005.51,VALID,0,VALID,71.0783,VALID,502.01,VALID,29.8818,VALID,32,VALID,0.910547,
2008-08-26, 08:22:04,VALID,1005.51,VALID,0,VALID,71.2995,VALID,511.865,VALID,29.9036,VALID,42,VALID,1.63008,
2008-08-26, 08:23:04,VALID,1005.56,VALID,0,VALID,71.3071,VALID,495.775,VALID,29.8795,VALID,88,VALID,2.04805,
2008-08-26, 08:24:04,VALID,1005.49,VALID,0,VALID,68.6447,VALID,456.053,VALID,29.8818,VALID,126,VALID,3.93906,
2008-08-26, 08:25:04,VALID,1005.52,VALID,0,VALID,71.3377,VALID,505.932,VALID,29.743,VALID,87,VALID,3.22305,
2008-08-26, 08:26:04,VALID,1005.4,VALID,0,VALID,69.7737,VALID,503.116,VALID,29.6868,VALID,62,VALID,3.40898,
2008-08-26, 08:27:04,VALID,1005.44,VALID,0,VALID,70.7045,VALID,508.748,VALID,29.6065,VALID,73,VALID,2.49609,
2008-08-26, 08:28:04,VALID,1005.48,VALID,0,VALID,71.0935,VALID,483.306,VALID,29.6868,VALID,100,VALID,2.36523,
2008-08-26, 08:29:04,VALID,1005.5,VALID,0,VALID,70.4985,VALID,242.96,VALID,29.6088,VALID,99,VALID,3.04883,
2008-08-26, 08:30:04,VALID,1005.47,VALID,0,VALID,72.0166,VALID,372.887,VALID,29.4918,VALID,94,VALID,2.2043,
2008-08-26, 08:31:04,VALID,1005.45,VALID,0,VALID,72.0471,VALID,342.115,VALID,29.4528,VALID,97,VALID,2.70039,
2008-08-26, 08:32:04,VALID,1005.41,VALID,0,VALID,71.7191,VALID,290.828,VALID,29.4333,VALID,99,VALID,3.24141,
2008-08-26, 08:33:04,VALID,1005.49,VALID,0,VALID,73.1304,VALID,314.762,VALID,29.314,VALID,109,VALID,1.56992,
2008-08-26, 08:34:04,VALID,1005.55,VALID,0,VALID,73.1991,VALID,280.671,VALID,29.2945,VALID,112,VALID,2.21211,
2008-08-26, 08:35:04,VALID,1005.49,VALID,0,VALID,73.6034,VALID,254.726,VALID,29.2751,VALID,115,VALID,1.7168,
2008-08-26, 08:36:04,VALID,1005.46,VALID,0,VALID,72.7109,VALID,250.402,VALID,29.2556,VALID,102,VALID,2.50391,
2008-08-26, 08:37:04,VALID,1005.44,VALID,0,VALID,73.0847,VALID,428.197,VALID,29.2556,VALID,94,VALID,0.980078,
2008-08-26, 08:38:04,VALID,1005.49,VALID,0,VALID,73.3441,VALID,715.204,VALID,29.353,VALID,97,VALID,2.24922,
2008-08-26, 08:39:04,VALID,1005.41,VALID,0,VALID,71.5131,VALID,607.802,VALID,29.5113,VALID,120,VALID,2.47695,
2008-08-26, 08:40:04,VALID,1005.43,VALID,0,VALID,72.3218,VALID,579.243,VALID,29.5675,VALID,75,VALID,1.30938,
2008-08-26, 08:41:04,VALID,1005.46,VALID,0,VALID,72.3828,VALID,468.422,VALID,29.7258,VALID,97,VALID,1.88281,
2008-08-26, 08:42:04,VALID,1005.43,VALID,0,VALID,71.8946,VALID,239.038,VALID,29.8038,VALID,94,VALID,1.57383,
2008-08-26, 08:43:04,VALID,1005.48,VALID,0,VALID,71.3529,VALID,198.21,VALID,29.7648,VALID,100,VALID,1.20625,
2008-08-26, 08:44:04,VALID,1005.52,VALID,0,VALID,71.5208,VALID,179.505,VALID,29.6088,VALID,82,VALID,2.00234,
2008-08-26, 08:45:04,VALID,1005.51,VALID,0,VALID,72.3065,VALID,184.634,VALID,29.5308,VALID,105,VALID,1.00898,
2008-08-26, 08:46:04,VALID,1005.5,VALID,0,VALID,71.6657,VALID,198.411,VALID,29.392,VALID,97,VALID,2.54844,
2008-08-26, 08:47:04,VALID,1005.52,VALID,0,VALID,72.6269,VALID,211.283,VALID,29.3163,VALID,123,VALID,3.03281,
2008-08-26, 08:48:04,VALID,1005.52,VALID,0,VALID,73.1457,VALID,216.11,VALID,29.1581,VALID,126,VALID,2.33594,
2008-08-26, 08:49:04,VALID,1005.55,VALID,0,VALID,72.9168,VALID,229.987,VALID,29.1386,VALID,103,VALID,2.26523,
2008-08-26, 08:50:04,VALID,1005.52,VALID,0,VALID,73.9773,VALID,239.843,VALID,29.1603,VALID,106,VALID,1.01367,
2008-08-26, 08:51:04,VALID,1005.52,VALID,0,VALID,73.634,VALID,327.835,VALID,29.2383,VALID,87,VALID,0.844922,
2008-08-26, 08:52:04,VALID,1005.51,VALID,0,VALID,71.8107,VALID,302.091,VALID,29.2751,VALID,93,VALID,1.63945,
2008-08-26, 08:53:04,VALID,1005.54,VALID,0,VALID,73.3746,VALID,237.831,VALID,29.3335,VALID,78,VALID,1.04805,
2008-08-26, 08:54:04,VALID,1005.47,VALID,0,VALID,70.8647,VALID,492.055,VALID,29.3943,VALID,75,VALID,1.42695,
2008-08-26, 08:55:04,VALID,1005.52,VALID,0,VALID,71.3529,VALID,299.476,VALID,29.4723,VALID,95,VALID,2.08398,
2008-08-26, 08:56:04,VALID,1005.5,VALID,0,VALID,71.2614,VALID,264.883,VALID,29.4895,VALID,115,VALID,1.67656,
2008-08-26, 08:57:04,VALID,1005.41,VALID,0,VALID,69.4686,VALID,243.865,VALID,29.5503,VALID,19,VALID,1.75273,
2008-08-26, 08:58:04,VALID,1005.44,VALID,0,VALID,69.049,VALID,252.916,VALID,29.5308,VALID,47,VALID,2.21211,
2008-08-26, 08:59:04,VALID,1005.45,VALID,0,VALID,69.0185,VALID,489.138,VALID,29.47,VALID,80,VALID,2.86133,
2008-08-26, 09:00:04,VALID,1005.42,VALID,0,VALID,69.255,VALID,306.013,VALID,29.4333,VALID,108,VALID,2.77187,
2008-08-26, 09:01:04,VALID,1005.41,VALID,0,VALID,68.8812,VALID,234.01,VALID,29.4528,VALID,75,VALID,3.1168,
2008-08-26, 09:02:04,VALID,1005.39,VALID,0,VALID,69.9339,VALID,239.641,VALID,29.3943,VALID,78,VALID,2.45039,
2008-08-26, 09:03:04,VALID,1005.41,VALID,0,VALID,68.5226,VALID,575.12,VALID,29.353,VALID,112,VALID,3.34297,
2008-08-26, 09:04:04,VALID,1005.39,VALID,0,VALID,69.8271,VALID,555.007,VALID,29.3725,VALID,90,VALID,2.64687,
2008-08-26, 09:05:04,VALID,1005.38,VALID,0,VALID,70.7273,VALID,272.224,VALID,29.509,VALID,120,VALID,2.73281,
2008-08-26, 09:06:04,VALID,1005.4,VALID,0,VALID,68.7972,VALID,290.627,VALID,29.5675,VALID,85,VALID,2.45039,
2008-08-26, 09:07:04,VALID,1005.36,VALID,0,VALID,68.1335,VALID,325.321,VALID,29.6065,VALID,108,VALID,2.38516,
2008-08-26, 09:08:04,VALID,1005.39,VALID,0,VALID,68.0115,VALID,312.349,VALID,29.6283,VALID,128,VALID,2.50391,
2008-08-26, 09:09:04,VALID,1005.43,VALID,0,VALID,68.5073,VALID,275.643,VALID,29.5285,VALID,113,VALID,3.3332,
2008-08-26, 09:10:04,VALID,1005.41,VALID,0,VALID,68.843,VALID,275.542,VALID,29.4918,VALID,112,VALID,2.46484,
2008-08-26, 09:11:04,VALID,1005.41,VALID,0,VALID,70.6587,VALID,354.786,VALID,29.4895,VALID,91,VALID,1.08984,
2008-08-26, 09:12:04,VALID,1005.38,VALID,0,VALID,69.461,VALID,268.302,VALID,29.5285,VALID,145,VALID,2.06484,
2008-08-26, 09:13:04,VALID,1005.42,VALID,0,VALID,70.1399,VALID,374.698,VALID,29.5893,VALID,112,VALID,1.95195,
2008-08-26, 09:14:04,VALID,1005.33,VALID,0,VALID,68.4768,VALID,338.294,VALID,29.6283,VALID,73,VALID,2.37266,
2008-08-26, 09:15:04,VALID,1005.37,VALID,0,VALID,69.2779,VALID,366.753,VALID,29.5675,VALID,116,VALID,2.91406,
2008-08-26, 09:16:04,VALID,1005.37,VALID,0,VALID,68.7515,VALID,270.514,VALID,29.5285,VALID,98,VALID,2.53242,
2008-08-26, 09:17:04,VALID,1005.31,VALID,0,VALID,68.0649,VALID,277.855,VALID,29.4895,VALID,134,VALID,2.20859,
2008-08-26, 09:18:04,VALID,1005.3,VALID,0,VALID,68.5836,VALID,286.906,VALID,29.4895,VALID,109,VALID,3.3793,
2008-08-26, 09:19:04,VALID,1005.31,VALID,0,VALID,68.4158,VALID,256.134,VALID,29.4505,VALID,102,VALID,2.90977,
2008-08-26, 09:20:04,VALID,1005.3,VALID,0,VALID,68.6752,VALID,241.251,VALID,29.4115,VALID,65,VALID,2.35898,
2008-08-26, 09:21:04,VALID,1005.33,VALID,0,VALID,68.0496,VALID,261.866,VALID,29.392,VALID,98,VALID,2.42812,
2008-08-26, 09:22:04,VALID,1005.35,VALID,0,VALID,68.1488,VALID,263.173,VALID,29.2945,VALID,117,VALID,3.53164,
2008-08-26, 09:23:04,VALID,1005.37,VALID,0,VALID,69.1634,VALID,289.722,VALID,29.2968,VALID,103,VALID,2.29063,
2008-08-26, 09:24:04,VALID,1005.36,VALID,0,VALID,69.4381,VALID,277.755,VALID,29.3575,VALID,57,VALID,2.19336,
2008-08-26, 09:25:04,VALID,1005.35,VALID,0,VALID,69.7814,VALID,412.308,VALID,29.3553,VALID,128,VALID,3.4543,
2008-08-26, 09:26:04,VALID,1005.38,VALID,0,VALID,69.6364,VALID,616.753,VALID,29.4138,VALID,98,VALID,2.21953,
2008-08-26, 09:27:04,VALID,1005.42,VALID,0,VALID,68.9346,VALID,599.154,VALID,29.5135,VALID,113,VALID,1.98281,
2008-08-26, 09:28:04,VALID,1005.43,VALID,0,VALID,68.4387,VALID,554.906,VALID,29.6868,VALID,110,VALID,1.58828,
2008-08-26, 09:29:04,VALID,1005.49,VALID,0,VALID,68.6294,VALID,480.791,VALID,29.8428,VALID,130,VALID,2.15664,
2008-08-26, 09:30:04,VALID,1005.5,VALID,0,VALID,68.4311,VALID,388.475,VALID,29.7843,VALID,119,VALID,3.23008,
2008-08-26, 09:31:04,VALID,1005.48,VALID,0,VALID,67.4774,VALID,294.549,VALID,29.6868,VALID,107,VALID,3.90742,
2008-08-26, 09:32:04,VALID,1005.46,VALID,0,VALID,68.2937,VALID,265.184,VALID,29.6305,VALID,141,VALID,2.34258,
2008-08-26, 09:33:04,VALID,1005.5,VALID,0,VALID,69.1787,VALID,272.324,VALID,29.611,VALID,107,VALID,2.7793,
2008-08-26, 09:34:04,VALID,1005.56,VALID,0,VALID,69.255,VALID,313.656,VALID,29.5698,VALID,96,VALID,2.86719,
2008-08-26, 09:35:04,VALID,1005.48,VALID,0,VALID,68.5607,VALID,289.118,VALID,29.5113,VALID,111,VALID,3.39102,
2008-08-26, 09:36:04,VALID,1005.49,VALID,0,VALID,69.0261,VALID,249.396,VALID,29.4333,VALID,115,VALID,3.77656,
2008-08-26, 09:37:04,VALID,1005.44,VALID,0,VALID,69.5678,VALID,241.552,VALID,29.3553,VALID,142,VALID,3.59336,
2008-08-26, 09:38:04,VALID,1005.48,VALID,0,VALID,70.0102,VALID,287.509,VALID,29.3185,VALID,110,VALID,3.95117,
2008-08-26, 09:39:04,VALID,1005.45,VALID,0,VALID,70.3078,VALID,397.726,VALID,29.2578,VALID,94,VALID,2.44453,
2008-08-26, 09:40:04,VALID,1005.39,VALID,0,VALID,68.8049,VALID,585.276,VALID,29.3575,VALID,99,VALID,2.07969,
2008-08-26, 09:41:04,VALID,1005.46,VALID,0,VALID,69.3008,VALID,566.069,VALID,29.533,VALID,86,VALID,1.62852,
2008-08-26, 09:42:04,VALID,1005.45,VALID,0,VALID,68.7362,VALID,548.772,VALID,29.6868,VALID,130,VALID,1.61758,
2008-08-26, 09:43:04,VALID,1005.46,VALID,0,VALID,67.8818,VALID,549.878,VALID,29.7865,VALID,120,VALID,3.81875,
2008-08-26, 09:44:04,VALID,1005.49,VALID,0,VALID,68.6218,VALID,525.14,VALID,29.7258,VALID,90,VALID,2.71133,
2008-08-26, 09:45:04,VALID,1005.49,VALID,0,VALID,69.6364,VALID,504.323,VALID,29.7865,VALID,130,VALID,3.25273,
2008-08-26, 09:46:04,VALID,1005.46,VALID,0,VALID,69.8424,VALID,501.306,VALID,29.767,VALID,123,VALID,2.11953,
2008-08-26, 09:47:04,VALID,1005.45,VALID,0,VALID,70.117,VALID,497.988,VALID,29.7063,VALID,141,VALID,5.31641,
2008-08-26, 09:48:04,VALID,1005.47,VALID,0,VALID,69.4152,VALID,486.121,VALID,29.728,VALID,110,VALID,3.8707,
2008-08-26, 09:49:04,VALID,1005.49,VALID,0,VALID,69.9034,VALID,466.21,VALID,29.6478,VALID,109,VALID,2.89141,
2008-08-26, 09:50:04,VALID,1005.48,VALID,0,VALID,69.6288,VALID,446.701,VALID,29.6305,VALID,112,VALID,4.46719,
2008-08-26, 09:51:04,VALID,1005.45,VALID,0,VALID,70.4222,VALID,439.46,VALID,29.5113,VALID,102,VALID,3.8043,
2008-08-26, 09:52:04,VALID,1005.44,VALID,0,VALID,71.3682,VALID,439.762,VALID,29.5503,VALID,80,VALID,2.20625,
2008-08-26, 09:53:04,VALID,1005.45,VALID,0,VALID,71.5589,VALID,304.605,VALID,29.6478,VALID,116,VALID,2.06992,
2008-08-26, 09:54:04,VALID,1005.41,VALID,0,VALID,70.3612,VALID,342.417,VALID,29.6283,VALID,107,VALID,3.76211,
2008-08-26, 09:55:04,VALID,1005.45,VALID,0,VALID,71.0935,VALID,490.144,VALID,29.6305,VALID,110,VALID,2.24609,
2008-08-26, 09:56:04,VALID,1005.42,VALID,0,VALID,70.4146,VALID,483.205,VALID,29.572,VALID,102,VALID,3.1707,
2008-08-26, 09:57:04,VALID,1005.37,VALID,0,VALID,70.4146,VALID,488.836,VALID,29.5893,VALID,111,VALID,2.55117,
2008-08-26, 09:58:04,VALID,1005.46,VALID,0,VALID,70.2391,VALID,511.463,VALID,29.5698,VALID,129,VALID,3.9332,
2008-08-26, 09:59:04,VALID,1005.41,VALID,0,VALID,70.6282,VALID,525.441,VALID,29.5308,VALID,129,VALID,3.2043,